Voltar ao catálogo

TITAN 34B DEB

LostHEO
NORAD 23806·DEBRIS·🇺🇸 United States

Lançado Apr 24, 1981 de Vandenberg Space Force Base

Loading…

Próximas Passagens (próximas 24 horas)

TLE

ObsoletoSource: Space-Track

Época: Aug 16, 2022, 21:01 UTC

1 23806U 81038D   22228.87630174  .00015694 -24120-6  54593-3 0  9991
2 23806  63.0669  69.7484 6654427 272.5825  18.8234  3.15706693 37246

Acompanhe TITAN 34B DEB em tempo real com AllMySat

Download on the App Store